Weather History for Istanbul, Turkey

Change the Weather History Date:

Monday, March 18, 2013

  Actual Average Record
Temperature  
Mean Temperature 41 °F -  
Max Temperature 51 °F 56 °F 64 °F (2001)
Min Temperature 31 °F 43 °F 31 °F (2013)
Degree Days  
Heating Degree Days 24    
Moisture  
Dew Point 29 °F    
Average Humidity 61    
Maximum Humidity 93    
Minimum Humidity 26    
Precipitation  
Precipitation 0.00 in - - ()
Sea Level Pressure  
Sea Level Pressure 30.14 in    
Wind  
Wind Speed 4 mph ()    
Max Wind Speed 9 mph    
Max Gust Speed -    
Visibility 3.6 miles    
Events      
Averages and records for this station are not official NWS values.
T = Trace of Precipitation, MM = Missing Value Source: Averaged Metar Reports

Daily Weather History Graph

Daily Weather History Graph

Search for Another Location

Airport:

Trip Planner

Search our weather history database for the weather conditions in past years. The results will help you decide how hot, cold, wet, or windy it might be!

Date:

Astronomy

Mar. 18, 2013 Rise Set
Actual Time 6:11 AM EET 6:14 PM EET
Civil Twilight 5:44 AM EET 6:42 PM EET
Nautical Twilight 5:12 AM EET 7:14 PM EET
Astronomical Twilight 4:39 AM EET 7:46 PM EET
Moon 9:52 AM EET (3/18) 12:00 AM EET (3/18)
Length of Visible Light 12h 57m
Length of Day
12h 03m
Waxing Crescent, 38% of the Moon is Illuminated
Mar 18
Waxing Crescent
Mar 19
First Quarter
Mar 27
Full
Apr 3
Last Quarter
Apr 10
New

Hourly Weather History & Observations

Time (EET) Temp. Windchill Dew Point Humidity Pressure Visibility Wind Dir Wind Speed Gust Speed Precip Events Conditions
12:20 AM 39.2 °F - 28.4 °F 65% 30.24 in - Variable 2.3 mph - N/A   Clear
12:50 AM 35.6 °F 29.2 °F 30.2 °F 81% 30.24 in 3.7 mi NNW 8.1 mph - N/A   Unknown
1:07 AM 37.4 °F 32.8 °F 32.0 °F 81% 30.24 in 2.5 mi NNW 5.8 mph - N/A   Mist
1:20 AM 37.4 °F 32.8 °F 32.0 °F 81% 30.24 in 2.5 mi North 5.8 mph - N/A   Mist
1:50 AM 35.6 °F 31.7 °F 28.4 °F 75% 30.24 in 2.5 mi Variable 4.6 mph - N/A   Mist
2:00 AM 35 °F - 30 °F 76% 30.27 in 2 mi North 4.6 mph - -   Mist
2:20 AM 35.6 °F 31.7 °F 30.2 °F 81% 30.24 in 2.5 mi North 4.6 mph - N/A   Mist
2:50 AM 32.0 °F 26.4 °F 28.4 °F 87% 30.24 in 2.5 mi North 5.8 mph - N/A   Mist
3:20 AM 33.8 °F 30.8 °F 30.2 °F 87% 30.24 in 2.5 mi North 3.5 mph - N/A   Mist
3:50 AM 32.0 °F 28.7 °F 30.2 °F 93% 30.24 in 2.5 mi North 3.5 mph - N/A   Mist
4:20 AM 33.8 °F - 30.2 °F 87% 30.24 in 2.5 mi NNW 2.3 mph - N/A   Mist
4:50 AM 32.0 °F 27.5 °F 28.4 °F 87% 30.24 in 2.5 mi North 4.6 mph - N/A   Mist
5:20 AM 32.0 °F 28.7 °F 28.4 °F 87% 30.24 in 2.5 mi North 3.5 mph - N/A   Mist
5:50 AM 32.0 °F - 30.2 °F 93% 30.24 in 2.5 mi North 2.3 mph - N/A   Mist
6:20 AM 33.8 °F - 32.0 °F 93% 30.24 in 2.5 mi Variable 1.2 mph - N/A   Mist
6:50 AM 33.8 °F - 32.0 °F 93% 30.24 in 2.5 mi Variable 1.2 mph - N/A   Mist
7:20 AM 41.0 °F 38.0 °F 33.8 °F 76% 30.24 in 2.5 mi East 4.6 mph - N/A   Mist
7:50 AM 41.0 °F 37.1 °F 33.8 °F 76% 30.24 in 2.5 mi ENE 5.8 mph - N/A   Mist
8:00 AM 41 °F - 32 °F 61% 30.26 in 2 mi ENE 5.8 mph - -   Mist
8:20 AM 42.8 °F 38.6 °F 33.8 °F 70% 30.24 in 3.7 mi East 6.9 mph - N/A   Unknown
8:50 AM 42.8 °F 38.0 °F 33.8 °F 70% 30.24 in 4.3 mi ESE 8.1 mph - N/A   Partly Cloudy
9:20 AM 44.6 °F 40.7 °F 33.8 °F 66% 30.24 in 6.2 mi ESE 6.9 mph - N/A   Scattered Clouds
9:50 AM 42.8 °F 38.6 °F 33.8 °F 70% 30.24 in 6.2 mi ESE 6.9 mph - N/A   Scattered Clouds
10:20 AM 44.6 °F 40.7 °F 33.8 °F 66% 30.21 in 6.2 mi ESE 6.9 mph - N/A   Partly Cloudy
10:50 AM 44.6 °F 40.7 °F 32.0 °F 61% 30.21 in 6.2 mi East 6.9 mph - N/A   Partly Cloudy
11:20 AM 46.4 °F 42.4 °F 28.4 °F 50% 30.18 in 6.2 mi East 8.1 mph - N/A   Partly Cloudy
11:50 AM 46.4 °F 42.9 °F 30.2 °F 53% 30.18 in - East 6.9 mph - N/A   Clear
12:20 PM 46.4 °F 41.9 °F 28.4 °F 50% 30.18 in - SE 9.2 mph - N/A   Clear
12:50 PM 46.4 °F 42.4 °F 24.8 °F 43% 30.15 in - SSE 8.1 mph - N/A   Clear
1:20 PM 48.2 °F - 26.6 °F 43% 30.15 in - SSE 6.9 mph - N/A   Clear
1:50 PM 50.0 °F - 26.6 °F 40% 30.12 in - South 5.8 mph - N/A   Clear
2:00 PM 49 °F - 25 °F 26% 30.15 in 6 mi South 5.8 mph - -  
2:20 PM 48.2 °F - 21.2 °F 34% 30.12 in - Variable 4.6 mph - N/A   Clear
2:50 PM 50.0 °F - 24.8 °F 37% 30.09 in - SSW 3.5 mph - N/A   Clear
3:20 PM 50.0 °F - 23.0 °F 35% 30.09 in - Variable 3.5 mph - N/A   Clear
3:50 PM 50.0 °F - 21.2 °F 32% 30.06 in - East 5.8 mph - N/A   Clear
4:20 PM 50.0 °F - 23.0 °F 35% 30.06 in - ENE 4.6 mph - N/A   Clear
4:50 PM 50.0 °F - 21.2 °F 32% 30.04 in - East 4.6 mph - N/A   Clear
5:20 PM 50.0 °F - 21.2 °F 32% 30.04 in - Calm Calm - N/A   Clear
5:50 PM 48.2 °F - 26.6 °F 43% 30.04 in - WSW 4.6 mph - N/A   Clear
6:20 PM 46.4 °F 45.2 °F 26.6 °F 46% 30.04 in - West 3.5 mph - N/A   Clear
6:50 PM 46.4 °F 44.3 °F 26.6 °F 46% 30.04 in - West 4.6 mph - N/A   Clear
7:20 PM 46.4 °F - 26.6 °F 46% 30.04 in - Variable 1.2 mph - N/A   Clear
7:50 PM 46.4 °F - 26.6 °F 46% 30.01 in - Calm Calm - N/A   Clear
8:00 PM 47 °F - 26 °F 31% 30.04 in 6 mi Calm Calm - -  
8:20 PM 46.4 °F - 28.4 °F 50% 30.01 in - Variable 1.2 mph - N/A   Clear
8:50 PM 46.4 °F 45.2 °F 30.2 °F 53% 30.01 in - West 3.5 mph - N/A   Clear
9:20 PM 46.4 °F 45.2 °F 32.0 °F 57% 30.01 in - WSW 3.5 mph - N/A   Clear
9:50 PM 46.4 °F 45.2 °F 30.2 °F 53% 29.98 in - SW 3.5 mph - N/A   Clear
10:20 PM 46.4 °F 45.2 °F 32.0 °F 57% 29.98 in - SW 3.5 mph - N/A   Clear
10:50 PM 46.4 °F 45.2 °F 32.0 °F 57% 29.98 in - SW 3.5 mph - N/A   Clear
11:20 PM 46.4 °F 45.2 °F 32.0 °F 57% 29.95 in - South 3.5 mph - N/A   Clear
11:50 PM 46.4 °F 45.2 °F 33.8 °F 62% 29.95 in - South 3.5 mph - N/A   Clear